TimeMST,TemperatureF,Dew PointF,Humidity,Sea Level PressureIn,VisibilityMPH,Wind Direction,Wind SpeedMPH,Gust SpeedMPH,PrecipitationIn,Events,Conditions,WindDirDegrees,DateUTC
12:38 AM,19.0,14.0,81,30.01,10.0,Calm,Calm,-,N/A,,Mostly Cloudy,0,2014-02-06 07:38:00
12:53 AM,21.9,17.1,82,29.99,10.0,Calm,Calm,-,N/A,,Overcast,0,2014-02-06 07:53:00
1:53 AM,24.1,19.0,81,29.97,10.0,Calm,Calm,-,N/A,,Scattered Clouds,0,2014-02-06 08:53:00
2:23 AM,23.0,18.0,81,30.01,10.0,Calm,Calm,-,N/A,,Mostly Cloudy,0,2014-02-06 09:23:00
2:41 AM,23.0,18.0,81,30.00,10.0,Calm,Calm,-,N/A,,Scattered Clouds,0,2014-02-06 09:41:00
2:53 AM,19.9,15.1,81,29.98,10.0,Calm,Calm,-,N/A,,Scattered Clouds,0,2014-02-06 09:53:00
3:17 AM,19.0,15.1,85,30.00,10.0,Calm,Calm,-,N/A,,Mostly Cloudy,0,2014-02-06 10:17:00
3:53 AM,18.0,12.9,81,29.98,10.0,Calm,Calm,-,N/A,,Mostly Cloudy,0,2014-02-06 10:53:00
4:53 AM,24.1,19.9,84,29.96,10.0,Calm,Calm,-,N/A,,Overcast,0,2014-02-06 11:53:00
5:53 AM,24.1,19.0,81,29.97,10.0,Calm,Calm,-,N/A,,Overcast,0,2014-02-06 12:53:00
6:53 AM,25.0,21.0,85,29.99,10.0,SSW,5.8,-,N/A,,Overcast,200,2014-02-06 13:53:00
7:26 AM,23.0,19.0,85,30.01,10.0,SSW,4.6,-,N/A,,Scattered Clouds,210,2014-02-06 14:26:00
7:53 AM,21.9,19.0,89,30.02,9.0,Calm,Calm,-,N/A,,Clear,0,2014-02-06 14:53:00
8:53 AM,30.0,23.0,75,30.02,-9999.0,North,-9999.0,-,N/A,,Unknown,0,2014-02-06 15:53:00
9:53 AM,33.1,23.0,66,30.01,-9999.0,South,5.8,-,N/A,,Unknown,170,2014-02-06 16:53:00
10:53 AM,36.0,21.9,57,30.00,10.0,Variable,4.6,-,N/A,,Clear,0,2014-02-06 17:53:00
11:53 AM,37.9,21.0,51,29.97,10.0,SW,6.9,-,N/A,,Partly Cloudy,220,2014-02-06 18:53:00
12:53 PM,39.9,18.0,41,29.91,10.0,WSW,9.2,-,N/A,,Overcast,240,2014-02-06 19:53:00
1:53 PM,41.0,19.0,41,29.88,10.0,SW,13.8,18.4,N/A,,Overcast,230,2014-02-06 20:53:00
2:53 PM,37.9,19.0,47,29.92,10.0,WSW,15.0,-,N/A,,Overcast,240,2014-02-06 21:53:00
3:53 PM,37.0,21.9,54,29.92,10.0,West,6.9,-,0.00,,Overcast,280,2014-02-06 22:53:00
4:53 PM,36.0,21.0,55,29.89,10.0,WSW,5.8,-,N/A,,Overcast,250,2014-02-06 23:53:00
5:53 PM,35.1,21.0,57,29.89,10.0,SW,5.8,-,N/A,,Overcast,230,2014-02-07 00:53:00
6:53 PM,32.0,24.1,73,29.91,4.0,North,-9999.0,-,0.00,Snow,Light Snow,0,2014-02-07 01:53:00
7:04 PM,32.0,25.0,75,29.93,2.0,North,-9999.0,-,0.00,Snow,Light Snow,0,2014-02-07 02:04:00
7:20 PM,30.9,26.1,82,29.94,1.2,North,-9999.0,-,0.00,Snow,Light Snow,0,2014-02-07 02:20:00
7:51 PM,30.2,26.6,86,29.93,2.0,Calm,Calm,-,0.02,Snow,Light Snow,0,2014-02-07 02:51:00
7:53 PM,30.9,26.1,82,29.93,2.5,Calm,Calm,-,0.02,Snow,Light Snow,0,2014-02-07 02:53:00
8:01 PM,30.9,26.1,82,29.93,4.0,Calm,Calm,-,0.00,Snow,Light Snow,0,2014-02-07 03:01:00
8:31 PM,30.9,26.1,82,29.93,3.0,Calm,Calm,-,0.00,Snow,Light Snow,0,2014-02-07 03:31:00
8:53 PM,30.9,26.1,82,29.89,5.0,Calm,Calm,-,0.00,Snow,Light Snow,0,2014-02-07 03:53:00
9:53 PM,30.0,25.0,82,29.88,8.0,South,4.6,-,0.00,Snow,Light Snow,190,2014-02-07 04:53:00
10:28 PM,30.0,25.0,82,29.93,8.0,South,4.6,-,0.00,Snow,Light Snow,190,2014-02-07 05:28:00
10:38 PM,28.9,25.0,85,29.93,9.0,SSW,4.6,-,0.00,,Overcast,200,2014-02-07 05:38:00
10:53 PM,28.0,25.0,88,29.88,10.0,SW,4.6,-,0.00,,Overcast,220,2014-02-07 05:53:00
11:30 PM,28.9,25.0,85,29.93,10.0,Calm,Calm,-,N/A,,Overcast,0,2014-02-07 06:30:00
11:53 PM,30.0,25.0,82,29.86,9.0,Calm,Calm,-,N/A,,Overcast,0,2014-02-07 06:53:00